Tracking 17857 objects as of 30-September-2016
HD Live streaming from Space Station
objects crossing your sky now

ESSA 1 (OT-3)

Track ESSA 1 (OT-3) now!
10-day predictions
ESSA 1 (OT-3) is classified as:


NORAD ID: 1982
Int'l Code: 1966-008A
Perigee: 686.0 km
Apogee: 800.6 km
Inclination: 97.9 °
Period: 99.5 minutes
Semi major axis: 7114 km
RCS: 0.7257 m2 (medium)
Launch date: February 3, 1966
Source: United States (US)
Launch site: AIR FORCE EASTERN TEST RANGE (AFETR)
Your satellite tracking list
Your tracking list is empty





NASA's NSSDC Master Catalog

Two Line Element Set (TLE):
1 01982U 66008A   16274.18216771  .00000026  00000-0  18123-4 0  9990
2 01982  97.8516 140.4966 0080529 236.7144 122.6317 14.46790552665674
Source of the keplerian elements: AFSPC

N2YO: 507